GEFSCGP_prec_meanprecacc_258.txt.gz
Total_Precipitation_Accumulation
0.01 0.01 0.01 0.02 0.03 0.03 0.05 0.07 0.10 0.13 0.12 0.15 0.28 0.55 0.80 0.90 1.17 1.13 1.16 1.32 1.48 1.61 1.91 2.34 2.65 3.20 3.81 4.19 4.58 4.74 4.75 4.66 4.47 4.08 3.76 3.51 3.28 3.08 2.84 2.66 2.58 2.48 2.37 2.54
0.01 0.03 0.03 0.02 0.03 0.05 0.06 0.08 0.10 0.15 0.16 0.21 0.39 0.62 0.90 0.91 0.99 1.04 0.96 1.00 1.20 1.56 1.81 2.34 2.64 2.86 3.33 3.84 4.30 4.59 4.74 4.64 4.26 3.87 3.66 3.53 3.47 3.07 2.77 2.73 2.83 2.69 2.70 2.74
0.02 0.03 0.03 0.03 0.03 0.05 0.08 0.08 0.10 0.11 0.14 0.28 0.43 0.83 1.09 0.98 0.93 0.95 0.94 0.99 1.17 1.64 2.08 2.34 2.54 2.70 2.98 3.37 3.68 3.80 3.96 3.93 3.77 3.80 3.80 3.73 3.68 3.23 3.12 3.12 3.10 2.92 2.92 2.94
0.02 0.02 0.03 0.04 0.06 0.06 0.10 0.08 0.07 0.08 0.15 0.36 0.44 0.94 1.35 1.18 1.03 1.08 1.13 1.08 1.35 1.68 1.72 1.87 2.19 2.51 2.69 2.91 3.26 3.49 3.56 3.51 3.42 3.52 3.57 3.44 3.23 3.07 3.18 3.47 3.43 3.16 2.94 2.78
0.03 0.03 0.04 0.05 0.05 0.06 0.08 0.08 0.08 0.11 0.17 0.35 0.46 0.72 1.25 1.28 1.26 1.15 1.17 1.28 1.49 1.52 1.46 1.57 1.78 2.10 2.21 2.52 2.81 3.06 3.33 3.42 3.37 3.42 3.35 3.37 3.24 3.24 3.27 3.24 3.24 3.04 2.84 2.51
0.04 0.05 0.04 0.04 0.04 0.05 0.07 0.08 0.14 0.21 0.33 0.67 0.55 0.57 1.03 1.20 1.04 0.98 1.08 1.11 1.30 1.31 1.31 1.50 1.65 1.89 2.01 2.16 2.28 2.41 2.64 2.92 3.09 3.15 3.13 3.15 3.10 3.09 3.01 2.91 2.78 2.58 2.43 2.17
0.09 0.10 0.08 0.05 0.06 0.07 0.07 0.11 0.42 0.77 1.00 1.05 0.58 0.62 1.07 0.94 0.75 0.76 0.95 1.00 1.06 1.04 1.02 1.24 1.37 1.49 1.62 1.75 1.85 1.97 2.17 2.51 2.68 2.68 2.67 2.79 2.84 2.86 2.77 2.73 2.58 2.37 2.14 1.86
0.17 0.21 0.12 0.07 0.08 0.08 0.09 0.11 0.37 0.66 0.80 0.86 0.70 1.03 1.47 0.98 0.76 0.81 0.86 0.86 0.85 0.81 0.79 0.94 1.15 1.37 1.43 1.46 1.59 1.73 1.95 2.19 2.30 2.25 2.38 2.59 2.67 2.77 2.65 2.67 2.44 2.19 1.98 1.87
0.11 0.11 0.08 0.08 0.11 0.11 0.10 0.10 0.16 0.31 0.40 0.64 0.89 1.16 1.20 0.75 0.66 0.75 0.77 0.79 0.90 0.84 0.76 0.83 0.92 1.10 1.15 1.20 1.32 1.47 1.82 2.10 2.21 2.24 2.39 2.49 2.57 2.56 2.46 2.38 2.21 2.01 2.00 1.94
0.04 0.06 0.08 0.08 0.09 0.11 0.11 0.12 0.17 0.25 0.41 0.64 0.86 1.15 1.28 0.90 0.73 0.55 0.50 0.55 0.56 0.55 0.56 0.64 0.70 0.80 0.92 1.13 1.38 1.53 1.67 1.96 2.08 2.10 2.18 2.22 2.39 2.34 2.24 2.17 2.00 1.85 1.76 1.79
0.04 0.04 0.07 0.09 0.12 0.13 0.13 0.12 0.15 0.19 0.25 0.45 0.87 1.08 0.86 0.72 0.60 0.55 0.53 0.57 0.49 0.44 0.46 0.52 0.66 0.80 0.97 1.12 1.30 1.37 1.41 1.58 1.71 1.82 2.00 1.98 1.97 2.07 2.14 2.01 1.80 1.72 1.71 1.74
0.04 0.04 0.06 0.13 0.19 0.16 0.15 0.13 0.14 0.18 0.19 0.28 0.50 0.71 0.56 0.62 0.62 0.54 0.56 0.62 0.62 0.58 0.53 0.57 0.74 0.91 1.03 1.18 1.22 1.20 1.25 1.39 1.53 1.71 1.91 1.98 1.99 2.03 2.03 1.91 1.73 1.67 1.69 1.77
0.05 0.06 0.11 0.28 0.40 0.27 0.17 0.13 0.13 0.15 0.12 0.21 0.42 0.66 0.46 0.43 0.52 0.67 0.91 1.08 0.88 0.71 0.65 0.74 0.83 0.86 0.90 1.00 1.11 1.07 1.06 1.22 1.39 1.61 1.95 2.11 2.11 2.05 1.97 1.80 1.59 1.55 1.60 1.72
0.08 0.06 0.10 0.30 0.43 0.36 0.26 0.17 0.13 0.11 0.14 0.18 0.26 0.53 0.49 0.48 0.53 0.69 0.88 0.82 0.82 0.77 0.72 0.83 0.83 0.89 0.88 0.86 0.95 0.94 0.98 1.08 1.31 1.51 1.71 1.81 1.73 1.68 1.69 1.61 1.52 1.47 1.52 1.60
0.12 0.08 0.07 0.12 0.22 0.24 0.24 0.23 0.19 0.15 0.12 0.22 0.26 0.37 0.46 0.49 0.62 0.79 0.96 0.96 0.90 0.74 0.65 0.73 0.73 0.77 0.80 0.81 0.90 0.84 0.84 0.89 1.02 1.20 1.32 1.46 1.47 1.45 1.43 1.49 1.54 1.57 1.66 1.65
0.19 0.19 0.14 0.16 0.19 0.25 0.28 0.26 0.19 0.14 0.12 0.16 0.24 0.38 0.51 0.58 0.68 0.76 0.74 0.68 0.61 0.56 0.46 0.45 0.61 0.70 0.66 0.66 0.70 0.64 0.70 0.83 0.98 1.07 1.18 1.38 1.51 1.54 1.54 1.58 1.67 1.72 1.72 1.72
0.25 0.28 0.26 0.25 0.25 0.25 0.34 0.33 0.24 0.15 0.14 0.20 0.32 0.49 0.65 0.56 0.59 0.66 0.64 0.63 0.59 0.57 0.42 0.36 0.43 0.59 0.58 0.58 0.59 0.69 0.82 0.96 1.07 1.21 1.35 1.52 1.62 1.71 1.73 1.69 1.79 1.76 1.77 1.81
0.40 0.42 0.34 0.32 0.43 0.52 0.37 0.30 0.29 0.29 0.26 0.28 0.40 0.42 0.56 0.57 0.63 0.75 0.74 0.72 0.58 0.51 0.42 0.37 0.38 0.43 0.50 0.56 0.64 0.78 1.05 1.27 1.32 1.46 1.65 1.74 1.85 1.81 1.79 1.78 1.81 1.88 1.96 1.98
0.33 0.50 0.48 0.47 0.61 0.52 0.45 0.32 0.36 0.41 0.54 0.56 0.64 0.61 0.56 0.56 0.67 0.77 0.66 0.59 0.59 0.49 0.45 0.44 0.43 0.50 0.60 0.64 0.68 0.89 1.12 1.37 1.50 1.56 1.69 1.85 1.95 1.99 2.01 2.03 1.98 2.03 2.11 2.07
0.35 0.50 0.63 0.59 0.74 0.73 0.62 0.48 0.47 0.58 1.03 0.86 0.79 0.81 0.69 0.65 0.79 0.87 0.81 0.73 0.67 0.60 0.56 0.55 0.57 0.66 0.81 0.91 0.95 1.08 1.20 1.34 1.52 1.60 1.72 1.90 2.12 2.18 2.21 2.34 2.41 2.33 2.29 2.15
0.64 0.72 0.75 0.74 0.80 0.87 0.74 0.68 0.71 1.11 1.39 1.08 0.91 0.87 0.85 0.96 0.97 0.91 0.81 0.82 0.76 0.64 0.67 0.65 0.68 0.80 1.00 1.14 1.20 1.29 1.43 1.53 1.55 1.64 1.77 1.97 2.16 2.24 2.32 2.47 2.54 2.49 2.44 2.41
0.84 0.90 0.88 0.89 1.08 1.25 0.87 0.84 1.24 1.50 1.26 1.25 1.22 1.13 1.02 1.00 0.95 0.91 0.82 0.80 0.75 0.73 0.78 0.79 0.84 0.99 1.20 1.37 1.34 1.38 1.45 1.49 1.54 1.56 1.68 1.81 1.98 2.03 2.11 2.37 2.45 2.51 2.53 2.48
0.92 1.01 1.08 1.20 1.32 1.22 1.02 1.10 1.27 1.39 1.55 1.46 1.35 1.35 1.16 1.12 1.03 0.94 0.85 0.82 0.80 0.77 0.83 0.86 0.93 1.12 1.36 1.51 1.53 1.60 1.49 1.55 1.59 1.62 1.75 1.89 1.96 2.03 2.14 2.24 2.26 2.33 2.41 2.36
1.08 0.95 1.13 1.37 1.41 1.33 1.19 1.06 1.00 1.13 1.24 1.23 1.22 1.23 1.18 1.15 1.08 0.99 0.88 0.81 0.81 0.82 0.77 0.82 0.91 1.00 1.11 1.30 1.47 1.57 1.63 1.67 1.68 1.70 1.75 1.83 1.94 1.94 1.98 2.11 2.21 2.31 2.42 2.48
1.27 1.13 1.34 1.62 1.53 1.41 1.41 1.30 1.18 1.26 1.32 1.24 1.18 1.15 1.16 1.13 1.07 0.93 0.90 0.88 0.86 0.85 0.80 0.82 0.91 0.92 0.98 1.07 1.20 1.28 1.39 1.51 1.55 1.59 1.64 1.68 1.71 1.79 1.88 1.93 2.01 2.03 2.13 2.14
1.37 1.34 1.64 1.97 1.71 1.55 1.52 1.41 1.29 1.35 1.33 1.40 1.49 1.44 1.21 1.09 1.17 1.09 0.96 0.86 0.86 0.87 0.87 0.88 0.89 0.87 0.90 0.97 1.13 1.24 1.34 1.46 1.58 1.65 1.67 1.60 1.56 1.62 1.67 1.71 1.71 1.71 1.67 1.68

GEFSCGP_prec_meanprecacc_264.txt.gz
Total_Precipitation_Accumulation
0.01 0.01 0.02 0.03 0.04 0.03 0.05 0.07 0.10 0.13 0.12 0.15 0.28 0.55 0.80 0.90 1.17 1.13 1.16 1.32 1.48 1.61 1.91 2.34 2.65 3.21 3.81 4.20 4.58 4.74 4.76 4.68 4.51 4.14 3.82 3.58 3.34 3.13 2.87 2.69 2.61 2.50 2.39 2.56
0.01 0.03 0.03 0.02 0.03 0.05 0.06 0.08 0.10 0.15 0.16 0.21 0.39 0.62 0.91 0.92 0.99 1.04 0.96 1.00 1.20 1.56 1.81 2.34 2.65 2.87 3.33 3.84 4.30 4.60 4.75 4.65 4.27 3.90 3.70 3.58 3.51 3.11 2.81 2.77 2.87 2.72 2.72 2.75
0.02 0.03 0.03 0.03 0.03 0.05 0.08 0.09 0.10 0.11 0.14 0.28 0.44 0.85 1.10 0.99 0.93 0.95 0.94 0.99 1.17 1.64 2.08 2.34 2.54 2.70 2.99 3.38 3.69 3.81 3.97 3.94 3.79 3.82 3.83 3.76 3.73 3.29 3.18 3.17 3.15 2.95 2.95 2.96
0.02 0.02 0.03 0.04 0.06 0.06 0.10 0.08 0.07 0.08 0.16 0.37 0.46 1.01 1.39 1.19 1.04 1.08 1.13 1.08 1.35 1.68 1.72 1.87 2.19 2.51 2.69 2.92 3.27 3.50 3.56 3.52 3.43 3.54 3.59 3.47 3.27 3.11 3.23 3.52 3.47 3.19 2.97 2.81
0.03 0.03 0.04 0.05 0.05 0.06 0.09 0.08 0.08 0.11 0.17 0.35 0.46 0.78 1.30 1.28 1.26 1.15 1.17 1.28 1.49 1.52 1.46 1.57 1.78 2.10 2.22 2.53 2.82 3.07 3.33 3.43 3.38 3.43 3.38 3.40 3.26 3.26 3.30 3.28 3.29 3.09 2.88 2.54
0.04 0.05 0.04 0.04 0.04 0.05 0.07 0.08 0.14 0.21 0.33 0.68 0.56 0.60 1.06 1.21 1.04 0.98 1.08 1.11 1.30 1.31 1.31 1.50 1.66 1.89 2.02 2.17 2.29 2.43 2.65 2.93 3.10 3.16 3.14 3.17 3.13 3.11 3.04 2.94 2.82 2.63 2.47 2.21
0.09 0.10 0.08 0.05 0.06 0.07 0.07 0.12 0.45 0.80 1.02 1.07 0.59 0.63 1.08 0.95 0.75 0.76 0.95 1.00 1.06 1.04 1.02 1.24 1.37 1.49 1.63 1.75 1.86 1.99 2.18 2.52 2.69 2.69 2.68 2.80 2.86 2.87 2.79 2.75 2.60 2.39 2.16 1.88
0.17 0.22 0.12 0.08 0.08 0.08 0.09 0.12 0.39 0.69 0.81 0.87 0.71 1.05 1.48 0.99 0.77 0.81 0.86 0.86 0.85 0.82 0.79 0.95 1.17 1.38 1.44 1.47 1.59 1.74 1.97 2.20 2.31 2.26 2.39 2.61 2.68 2.78 2.66 2.69 2.45 2.20 2.00 1.89
0.11 0.11 0.08 0.08 0.11 0.11 0.10 0.10 0.16 0.32 0.41 0.66 0.91 1.18 1.22 0.76 0.67 0.75 0.77 0.79 0.90 0.85 0.78 0.85 0.94 1.11 1.16 1.21 1.33 1.48 1.84 2.12 2.24 2.27 2.41 2.51 2.58 2.56 2.47 2.39 2.22 2.02 2.02 1.96
0.04 0.07 0.09 0.08 0.09 0.11 0.11 0.12 0.18 0.25 0.43 0.67 0.89 1.19 1.31 0.93 0.75 0.55 0.50 0.55 0.56 0.56 0.57 0.66 0.71 0.81 0.93 1.13 1.39 1.54 1.68 1.98 2.10 2.12 2.21 2.24 2.41 2.36 2.25 2.18 2.01 1.86 1.77 1.81
0.04 0.04 0.07 0.09 0.12 0.13 0.13 0.13 0.15 0.19 0.26 0.46 0.90 1.14 0.90 0.74 0.61 0.56 0.53 0.58 0.50 0.45 0.47 0.54 0.69 0.81 0.98 1.14 1.31 1.38 1.43 1.59 1.73 1.83 2.02 2.01 2.00 2.11 2.17 2.04 1.82 1.74 1.73 1.76
0.04 0.04 0.06 0.14 0.19 0.16 0.15 0.13 0.14 0.18 0.19 0.29 0.52 0.75 0.58 0.64 0.63 0.54 0.56 0.63 0.63 0.59 0.54 0.60 0.79 0.95 1.05 1.19 1.22 1.22 1.26 1.40 1.55 1.73 1.92 2.00 2.01 2.05 2.06 1.94 1.76 1.70 1.73 1.80
0.05 0.06 0.11 0.29 0.40 0.27 0.17 0.13 0.13 0.15 0.13 0.21 0.43 0.68 0.47 0.44 0.54 0.68 0.92 1.09 0.89 0.71 0.66 0.75 0.86 0.90 0.91 1.01 1.12 1.10 1.08 1.23 1.41 1.62 1.96 2.12 2.13 2.07 1.99 1.82 1.62 1.57 1.62 1.74
0.08 0.06 0.11 0.31 0.43 0.36 0.26 0.17 0.13 0.11 0.14 0.18 0.27 0.54 0.50 0.49 0.55 0.71 0.89 0.83 0.82 0.77 0.72 0.83 0.85 0.93 0.90 0.87 0.96 0.95 0.99 1.09 1.32 1.51 1.72 1.83 1.74 1.70 1.71 1.63 1.53 1.48 1.52 1.60
0.13 0.08 0.07 0.12 0.22 0.24 0.24 0.23 0.19 0.15 0.12 0.22 0.26 0.39 0.48 0.52 0.63 0.80 0.96 0.96 0.90 0.74 0.66 0.73 0.74 0.78 0.81 0.82 0.90 0.85 0.85 0.90 1.04 1.22 1.33 1.47 1.48 1.46 1.46 1.51 1.55 1.58 1.66 1.66
0.19 0.19 0.14 0.16 0.19 0.25 0.28 0.26 0.19 0.14 0.12 0.16 0.25 0.39 0.52 0.59 0.68 0.77 0.74 0.68 0.61 0.56 0.47 0.45 0.62 0.71 0.67 0.67 0.71 0.67 0.72 0.85 0.99 1.09 1.19 1.39 1.53 1.56 1.57 1.60 1.69 1.73 1.73 1.74
0.25 0.28 0.27 0.26 0.25 0.25 0.34 0.33 0.24 0.15 0.14 0.20 0.33 0.49 0.66 0.56 0.59 0.67 0.65 0.63 0.59 0.58 0.44 0.40 0.49 0.64 0.60 0.59 0.61 0.70 0.83 0.96 1.08 1.22 1.35 1.53 1.64 1.73 1.74 1.70 1.80 1.78 1.79 1.84
0.41 0.42 0.34 0.32 0.44 0.52 0.38 0.30 0.29 0.29 0.26 0.28 0.40 0.42 0.57 0.57 0.63 0.75 0.74 0.73 0.58 0.52 0.45 0.45 0.46 0.49 0.52 0.57 0.64 0.79 1.06 1.28 1.32 1.47 1.65 1.76 1.86 1.82 1.80 1.80 1.82 1.89 1.97 2.00
0.34 0.51 0.48 0.48 0.62 0.53 0.46 0.32 0.36 0.41 0.54 0.56 0.64 0.61 0.56 0.56 0.68 0.77 0.66 0.59 0.60 0.50 0.46 0.49 0.55 0.57 0.63 0.65 0.69 0.90 1.12 1.37 1.51 1.57 1.70 1.87 1.97 2.00 2.02 2.04 2.00 2.05 2.13 2.09
0.36 0.51 0.63 0.60 0.75 0.74 0.62 0.48 0.47 0.59 1.03 0.86 0.79 0.81 0.69 0.65 0.80 0.89 0.82 0.74 0.67 0.60 0.57 0.56 0.61 0.73 0.86 0.92 0.96 1.10 1.21 1.35 1.53 1.61 1.73 1.91 2.14 2.20 2.22 2.36 2.43 2.35 2.31 2.17
0.65 0.73 0.76 0.75 0.81 0.88 0.75 0.68 0.72 1.12 1.40 1.08 0.91 0.87 0.85 0.96 0.98 0.93 0.83 0.83 0.77 0.65 0.67 0.67 0.71 0.85 1.03 1.16 1.22 1.32 1.45 1.55 1.57 1.66 1.79 1.99 2.17 2.26 2.34 2.49 2.56 2.52 2.46 2.43
0.85 0.91 0.90 0.91 1.09 1.26 0.87 0.84 1.24 1.51 1.26 1.25 1.22 1.13 1.02 1.00 0.96 0.92 0.83 0.82 0.77 0.74 0.78 0.80 0.87 1.02 1.22 1.39 1.35 1.41 1.48 1.52 1.59 1.60 1.71 1.84 2.01 2.04 2.13 2.39 2.47 2.52 2.55 2.49
0.92 1.02 1.09 1.21 1.33 1.23 1.02 1.10 1.27 1.39 1.55 1.46 1.35 1.35 1.16 1.12 1.03 0.94 0.86 0.83 0.80 0.77 0.83 0.86 0.93 1.13 1.37 1.53 1.55 1.61 1.51 1.58 1.63 1.65 1.78 1.92 1.99 2.05 2.16 2.26 2.28 2.35 2.43 2.38
1.09 0.95 1.14 1.38 1.42 1.34 1.20 1.07 1.00 1.13 1.24 1.23 1.23 1.23 1.19 1.15 1.09 1.00 0.89 0.82 0.82 0.82 0.78 0.83 0.92 1.01 1.11 1.31 1.48 1.58 1.64 1.69 1.70 1.72 1.77 1.85 1.96 1.97 2.01 2.14 2.23 2.34 2.44 2.51
1.28 1.13 1.35 1.63 1.54 1.42 1.42 1.30 1.18 1.26 1.33 1.24 1.18 1.15 1.16 1.13 1.08 0.94 0.90 0.89 0.86 0.85 0.81 0.83 0.91 0.92 0.99 1.08 1.20 1.29 1.41 1.52 1.57 1.60 1.66 1.71 1.75 1.83 1.92 1.96 2.04 2.06 2.16 2.18
1.38 1.35 1.65 1.98 1.73 1.57 1.54 1.41 1.29 1.36 1.33 1.40 1.49 1.44 1.22 1.09 1.17 1.09 0.97 0.88 0.86 0.88 0.88 0.89 0.90 0.88 0.91 0.98 1.13 1.25 1.36 1.48 1.60 1.67 1.70 1.63 1.58 1.65 1.70 1.74 1.73 1.75 1.70 1.72

GEFSCGP_prec_meanprecacc_270.txt.gz
Total_Precipitation_Accumulation
0.01 0.02 0.03 0.04 0.05 0.04 0.06 0.08 0.11 0.14 0.13 0.16 0.29 0.55 0.81 0.93 1.22 1.18 1.18 1.34 1.49 1.61 1.92 2.34 2.66 3.21 3.81 4.20 4.59 4.74 4.76 4.68 4.51 4.14 3.83 3.59 3.35 3.14 2.89 2.71 2.63 2.52 2.42 2.60
0.02 0.04 0.03 0.03 0.04 0.06 0.07 0.08 0.11 0.16 0.16 0.22 0.41 0.63 0.92 0.93 1.00 1.06 0.98 1.04 1.21 1.56 1.82 2.34 2.65 2.87 3.33 3.84 4.30 4.60 4.75 4.65 4.27 3.90 3.71 3.58 3.52 3.13 2.83 2.81 2.93 2.76 2.75 2.79
0.02 0.04 0.03 0.04 0.04 0.06 0.09 0.09 0.11 0.12 0.15 0.29 0.45 0.87 1.11 1.00 0.95 0.98 0.97 1.02 1.19 1.65 2.09 2.34 2.54 2.70 2.99 3.38 3.69 3.81 3.97 3.94 3.79 3.82 3.83 3.76 3.74 3.31 3.20 3.20 3.20 2.98 2.99 2.99
0.02 0.03 0.03 0.04 0.06 0.08 0.11 0.08 0.07 0.08 0.16 0.38 0.47 1.03 1.42 1.21 1.09 1.16 1.18 1.11 1.38 1.70 1.72 1.88 2.19 2.51 2.69 2.92 3.27 3.51 3.56 3.52 3.43 3.54 3.59 3.48 3.27 3.12 3.25 3.53 3.49 3.22 3.00 2.84
0.03 0.03 0.04 0.06 0.06 0.07 0.10 0.08 0.08 0.12 0.18 0.36 0.48 0.80 1.33 1.31 1.31 1.26 1.24 1.32 1.53 1.55 1.48 1.58 1.78 2.11 2.22 2.53 2.82 3.07 3.34 3.44 3.38 3.44 3.38 3.40 3.26 3.27 3.32 3.29 3.30 3.11 2.90 2.57
0.04 0.05 0.05 0.04 0.05 0.06 0.08 0.09 0.15 0.22 0.35 0.70 0.57 0.62 1.11 1.25 1.11 1.07 1.15 1.18 1.35 1.34 1.33 1.51 1.67 1.90 2.03 2.18 2.31 2.44 2.66 2.94 3.11 3.16 3.14 3.17 3.13 3.12 3.04 2.95 2.83 2.64 2.49 2.22
0.09 0.10 0.08 0.06 0.06 0.08 0.08 0.13 0.48 0.86 1.06 1.09 0.60 0.64 1.12 1.04 0.93 0.87 1.03 1.09 1.13 1.07 1.05 1.28 1.42 1.55 1.70 1.84 1.93 2.02 2.21 2.54 2.70 2.70 2.68 2.80 2.86 2.88 2.80 2.76 2.60 2.40 2.17 1.89
0.17 0.22 0.13 0.08 0.08 0.10 0.10 0.13 0.41 0.74 0.84 0.89 0.73 1.08 1.51 1.04 0.92 0.90 0.93 0.94 0.91 0.85 0.82 0.99 1.22 1.48 1.62 1.57 1.65 1.77 2.00 2.24 2.34 2.27 2.41 2.62 2.69 2.78 2.67 2.70 2.45 2.21 2.01 1.90
0.11 0.11 0.09 0.08 0.11 0.12 0.11 0.11 0.18 0.35 0.44 0.69 0.94 1.21 1.24 0.80 0.75 0.81 0.83 0.85 0.94 0.88 0.81 0.88 0.98 1.16 1.23 1.25 1.35 1.50 1.86 2.16 2.28 2.31 2.45 2.54 2.60 2.60 2.51 2.40 2.23 2.03 2.04 1.98
0.05 0.07 0.09 0.08 0.10 0.12 0.11 0.13 0.19 0.27 0.46 0.71 0.92 1.22 1.34 0.96 0.78 0.59 0.55 0.60 0.60 0.60 0.62 0.70 0.74 0.84 0.96 1.15 1.41 1.57 1.71 2.01 2.15 2.20 2.31 2.36 2.54 2.47 2.31 2.21 2.03 1.88 1.80 1.83
0.05 0.04 0.07 0.10 0.12 0.14 0.14 0.13 0.15 0.20 0.28 0.49 0.94 1.18 0.93 0.77 0.64 0.59 0.57 0.62 0.54 0.51 0.50 0.57 0.72 0.86 1.00 1.15 1.34 1.41 1.45 1.61 1.77 1.88 2.07 2.06 2.08 2.16 2.22 2.08 1.84 1.75 1.75 1.80
0.05 0.04 0.07 0.14 0.19 0.17 0.15 0.13 0.14 0.19 0.20 0.30 0.54 0.78 0.60 0.66 0.66 0.57 0.59 0.65 0.67 0.65 0.59 0.62 0.81 0.98 1.08 1.21 1.23 1.22 1.27 1.41 1.57 1.75 1.94 2.02 2.03 2.09 2.11 1.99 1.81 1.77 1.79 1.85
0.06 0.06 0.11 0.29 0.40 0.27 0.17 0.13 0.13 0.15 0.14 0.23 0.45 0.71 0.49 0.46 0.57 0.71 0.95 1.14 0.93 0.77 0.70 0.77 0.87 0.91 0.94 1.02 1.12 1.10 1.09 1.24 1.41 1.63 1.97 2.14 2.17 2.12 2.06 1.91 1.71 1.65 1.66 1.77
0.09 0.07 0.12 0.31 0.43 0.37 0.27 0.18 0.14 0.12 0.15 0.20 0.27 0.56 0.52 0.51 0.58 0.78 0.96 0.89 0.86 0.80 0.74 0.85 0.86 0.94 0.91 0.88 0.96 0.95 1.00 1.10 1.33 1.53 1.74 1.85 1.77 1.73 1.77 1.70 1.57 1.51 1.54 1.61
0.13 0.08 0.07 0.12 0.22 0.24 0.24 0.23 0.19 0.15 0.13 0.23 0.27 0.40 0.49 0.54 0.66 0.83 1.01 0.99 0.93 0.76 0.67 0.75 0.75 0.79 0.82 0.83 0.92 0.87 0.88 0.93 1.07 1.26 1.37 1.50 1.51 1.48 1.48 1.53 1.57 1.59 1.67 1.67
0.19 0.19 0.14 0.16 0.20 0.25 0.28 0.26 0.20 0.14 0.12 0.17 0.26 0.41 0.54 0.61 0.70 0.78 0.78 0.71 0.63 0.58 0.48 0.46 0.64 0.74 0.70 0.70 0.74 0.69 0.75 0.88 1.02 1.12 1.21 1.41 1.56 1.60 1.59 1.62 1.71 1.75 1.74 1.74
0.26 0.29 0.27 0.26 0.25 0.26 0.35 0.34 0.25 0.16 0.14 0.21 0.33 0.51 0.68 0.57 0.60 0.67 0.67 0.67 0.61 0.59 0.46 0.41 0.50 0.67 0.67 0.68 0.68 0.75 0.87 1.00 1.10 1.25 1.37 1.55 1.66 1.76 1.77 1.73 1.83 1.80 1.80 1.85
0.41 0.43 0.34 0.33 0.44 0.52 0.38 0.31 0.30 0.29 0.27 0.28 0.40 0.43 0.58 0.58 0.64 0.76 0.75 0.75 0.59 0.53 0.46 0.46 0.47 0.50 0.56 0.63 0.68 0.82 1.10 1.35 1.39 1.52 1.69 1.78 1.87 1.84 1.82 1.83 1.85 1.92 2.01 2.04
0.35 0.53 0.49 0.48 0.62 0.53 0.46 0.33 0.36 0.41 0.55 0.56 0.64 0.62 0.57 0.57 0.69 0.78 0.67 0.60 0.61 0.51 0.47 0.50 0.55 0.58 0.66 0.72 0.75 0.94 1.18 1.47 1.63 1.65 1.74 1.90 1.99 2.03 2.05 2.08 2.04 2.10 2.21 2.17
0.37 0.53 0.65 0.61 0.76 0.75 0.62 0.48 0.47 0.59 1.04 0.87 0.80 0.82 0.71 0.67 0.82 0.91 0.83 0.75 0.69 0.63 0.59 0.61 0.64 0.76 0.93 1.00 1.02 1.14 1.26 1.40 1.58 1.65 1.76 1.94 2.18 2.23 2.26 2.40 2.47 2.39 2.35 2.21
0.66 0.74 0.77 0.76 0.83 0.90 0.76 0.69 0.72 1.13 1.41 1.09 0.92 0.89 0.88 0.99 1.01 0.95 0.84 0.84 0.78 0.68 0.70 0.69 0.72 0.88 1.10 1.23 1.26 1.36 1.49 1.58 1.59 1.68 1.81 2.02 2.21 2.30 2.37 2.52 2.59 2.54 2.49 2.46
0.86 0.92 0.92 0.93 1.11 1.27 0.88 0.84 1.25 1.52 1.27 1.26 1.25 1.17 1.04 1.02 0.98 0.94 0.85 0.83 0.77 0.74 0.81 0.84 0.89 1.03 1.23 1.40 1.37 1.43 1.50 1.55 1.61 1.62 1.73 1.87 2.03 2.07 2.16 2.41 2.49 2.55 2.58 2.52
0.93 1.04 1.13 1.24 1.35 1.24 1.03 1.10 1.27 1.41 1.57 1.48 1.37 1.37 1.18 1.13 1.05 0.95 0.87 0.83 0.81 0.78 0.84 0.91 0.97 1.14 1.37 1.53 1.55 1.62 1.52 1.60 1.64 1.67 1.80 1.94 2.01 2.07 2.17 2.27 2.30 2.37 2.45 2.40
1.10 0.97 1.17 1.41 1.45 1.36 1.22 1.08 1.01 1.15 1.26 1.25 1.24 1.24 1.19 1.15 1.09 1.00 0.90 0.82 0.82 0.82 0.78 0.84 0.95 1.02 1.11 1.31 1.49 1.59 1.66 1.71 1.73 1.74 1.78 1.87 1.98 1.98 2.03 2.16 2.25 2.35 2.45 2.52
1.29 1.14 1.37 1.68 1.58 1.45 1.44 1.32 1.20 1.27 1.34 1.26 1.19 1.16 1.16 1.14 1.08 0.94 0.91 0.89 0.87 0.86 0.81 0.83 0.92 0.94 1.00 1.09 1.22 1.31 1.44 1.57 1.63 1.68 1.72 1.73 1.76 1.85 1.94 1.98 2.06 2.06 2.16 2.20
1.40 1.37 1.67 2.01 1.76 1.61 1.56 1.42 1.30 1.36 1.34 1.41 1.49 1.44 1.22 1.10 1.17 1.10 0.97 0.88 0.87 0.88 0.88 0.90 0.91 0.89 0.93 0.99 1.15 1.26 1.37 1.52 1.64 1.71 1.74 1.66 1.61 1.68 1.73 1.78 1.76 1.76 1.71 1.73

GEFSCGP_prec_meanprecacc_276.txt.gz
Total_Precipitation_Accumulation
0.01 0.02 0.03 0.04 0.05 0.04 0.06 0.08 0.11 0.14 0.13 0.17 0.30 0.56 0.82 0.93 1.22 1.18 1.19 1.37 1.52 1.64 1.94 2.35 2.66 3.22 3.82 4.20 4.59 4.75 4.77 4.69 4.52 4.17 3.86 3.61 3.37 3.17 2.91 2.74 2.66 2.56 2.46 2.65
0.02 0.04 0.03 0.03 0.04 0.06 0.07 0.08 0.11 0.16 0.16 0.22 0.41 0.63 0.93 0.94 1.01 1.06 0.99 1.06 1.24 1.59 1.84 2.35 2.66 2.87 3.34 3.85 4.31 4.61 4.76 4.65 4.28 3.90 3.73 3.62 3.56 3.17 2.88 2.85 2.98 2.81 2.82 2.85
0.02 0.04 0.03 0.04 0.04 0.06 0.09 0.09 0.11 0.12 0.15 0.29 0.45 0.87 1.12 1.00 0.96 0.99 0.98 1.06 1.23 1.68 2.12 2.37 2.56 2.72 3.01 3.40 3.70 3.82 3.98 3.94 3.79 3.83 3.84 3.78 3.76 3.33 3.23 3.23 3.23 3.02 3.04 3.06
0.02 0.03 0.03 0.05 0.07 0.08 0.11 0.09 0.07 0.09 0.17 0.38 0.47 1.03 1.42 1.21 1.09 1.18 1.21 1.18 1.44 1.74 1.77 1.92 2.23 2.54 2.72 2.96 3.29 3.53 3.58 3.53 3.44 3.54 3.60 3.49 3.29 3.13 3.28 3.58 3.52 3.24 3.03 2.87
0.03 0.03 0.04 0.06 0.06 0.07 0.10 0.09 0.09 0.12 0.19 0.36 0.48 0.80 1.33 1.31 1.32 1.27 1.25 1.35 1.59 1.60 1.52 1.63 1.84 2.16 2.28 2.58 2.86 3.10 3.36 3.45 3.40 3.45 3.40 3.41 3.27 3.28 3.35 3.34 3.33 3.12 2.93 2.59
0.04 0.05 0.05 0.04 0.05 0.07 0.08 0.09 0.16 0.23 0.35 0.70 0.57 0.62 1.11 1.25 1.11 1.08 1.16 1.20 1.38 1.37 1.36 1.55 1.71 1.97 2.11 2.24 2.37 2.51 2.70 2.97 3.14 3.20 3.17 3.20 3.15 3.13 3.06 2.98 2.85 2.65 2.50 2.25
0.09 0.10 0.08 0.06 0.06 0.08 0.08 0.14 0.48 0.87 1.06 1.09 0.60 0.65 1.12 1.04 0.93 0.87 1.04 1.11 1.15 1.09 1.07 1.29 1.44 1.59 1.77 1.90 1.99 2.08 2.27 2.60 2.76 2.75 2.74 2.86 2.92 2.91 2.83 2.80 2.64 2.42 2.19 1.92
0.17 0.22 0.13 0.08 0.08 0.10 0.11 0.13 0.42 0.75 0.84 0.89 0.73 1.08 1.51 1.05 0.93 0.90 0.94 0.95 0.92 0.86 0.83 0.99 1.23 1.50 1.64 1.61 1.69 1.79 2.03 2.29 2.39 2.33 2.46 2.69 2.76 2.84 2.74 2.75 2.48 2.22 2.02 1.92
0.11 0.11 0.09 0.08 0.11 0.12 0.11 0.12 0.19 0.36 0.44 0.69 0.94 1.21 1.25 0.80 0.75 0.81 0.83 0.86 0.95 0.89 0.82 0.89 0.98 1.16 1.25 1.27 1.36 1.51 1.88 2.20 2.32 2.36 2.49 2.59 2.67 2.66 2.57 2.43 2.25 2.04 2.05 2.00
0.06 0.07 0.09 0.08 0.10 0.12 0.11 0.14 0.20 0.28 0.46 0.71 0.93 1.22 1.34 0.96 0.78 0.59 0.55 0.60 0.60 0.60 0.62 0.70 0.74 0.85 0.97 1.17 1.42 1.58 1.72 2.02 2.17 2.22 2.32 2.37 2.57 2.50 2.32 2.22 2.04 1.88 1.80 1.84
0.07 0.05 0.07 0.10 0.12 0.14 0.14 0.13 0.16 0.21 0.29 0.49 0.95 1.18 0.93 0.77 0.64 0.60 0.57 0.62 0.55 0.51 0.51 0.57 0.72 0.86 1.01 1.17 1.35 1.42 1.46 1.63 1.78 1.90 2.08 2.07 2.08 2.17 2.23 2.08 1.85 1.76 1.75 1.81
0.06 0.05 0.07 0.14 0.19 0.17 0.15 0.13 0.14 0.20 0.20 0.31 0.55 0.78 0.60 0.66 0.66 0.57 0.59 0.66 0.67 0.66 0.60 0.63 0.82 0.99 1.09 1.22 1.25 1.25 1.29 1.42 1.58 1.76 1.95 2.02 2.03 2.09 2.12 2.00 1.83 1.78 1.81 1.88
0.07 0.07 0.12 0.29 0.41 0.28 0.17 0.13 0.13 0.15 0.14 0.23 0.45 0.71 0.49 0.46 0.57 0.72 0.95 1.14 0.94 0.77 0.70 0.78 0.88 0.92 0.95 1.04 1.16 1.16 1.12 1.26 1.43 1.65 1.99 2.15 2.18 2.13 2.07 1.92 1.72 1.66 1.67 1.78
0.10 0.07 0.12 0.31 0.43 0.37 0.27 0.18 0.14 0.12 0.15 0.20 0.27 0.56 0.52 0.51 0.59 0.78 0.96 0.89 0.86 0.80 0.74 0.85 0.87 0.95 0.92 0.90 0.99 0.98 1.01 1.12 1.35 1.56 1.76 1.87 1.78 1.75 1.79 1.72 1.59 1.52 1.55 1.62
0.14 0.09 0.07 0.12 0.22 0.25 0.25 0.23 0.19 0.15 0.13 0.23 0.27 0.40 0.50 0.54 0.67 0.83 1.01 0.99 0.93 0.76 0.67 0.75 0.75 0.80 0.83 0.84 0.93 0.88 0.89 0.95 1.10 1.29 1.39 1.51 1.53 1.51 1.51 1.57 1.60 1.61 1.69 1.68
0.20 0.19 0.15 0.16 0.20 0.25 0.28 0.27 0.20 0.14 0.12 0.17 0.26 0.41 0.54 0.61 0.70 0.78 0.78 0.72 0.64 0.58 0.48 0.47 0.64 0.74 0.71 0.71 0.75 0.70 0.75 0.89 1.04 1.14 1.24 1.45 1.58 1.62 1.62 1.66 1.75 1.78 1.76 1.77
0.26 0.29 0.27 0.26 0.25 0.26 0.35 0.34 0.25 0.16 0.15 0.21 0.33 0.51 0.68 0.57 0.60 0.67 0.67 0.67 0.61 0.60 0.46 0.42 0.51 0.67 0.68 0.69 0.68 0.76 0.88 1.01 1.12 1.26 1.40 1.57 1.68 1.78 1.79 1.76 1.87 1.83 1.83 1.88
0.42 0.43 0.35 0.33 0.44 0.53 0.38 0.31 0.30 0.29 0.27 0.28 0.40 0.43 0.58 0.58 0.64 0.76 0.76 0.75 0.60 0.54 0.47 0.46 0.47 0.50 0.56 0.63 0.68 0.82 1.11 1.35 1.41 1.55 1.73 1.82 1.90 1.86 1.84 1.85 1.88 1.96 2.04 2.07
0.36 0.54 0.50 0.49 0.63 0.54 0.46 0.33 0.36 0.41 0.55 0.56 0.64 0.62 0.57 0.57 0.69 0.79 0.67 0.61 0.61 0.51 0.48 0.51 0.56 0.58 0.67 0.73 0.75 0.95 1.18 1.48 1.65 1.70 1.80 1.93 2.02 2.05 2.07 2.09 2.06 2.13 2.25 2.20
0.38 0.54 0.66 0.62 0.76 0.75 0.63 0.48 0.48 0.59 1.04 0.87 0.80 0.82 0.71 0.68 0.82 0.91 0.83 0.75 0.70 0.63 0.60 0.61 0.64 0.76 0.94 1.01 1.02 1.15 1.27 1.42 1.60 1.67 1.78 1.96 2.19 2.24 2.26 2.42 2.49 2.43 2.38 2.24
0.67 0.74 0.78 0.77 0.84 0.90 0.76 0.69 0.72 1.13 1.42 1.10 0.93 0.90 0.89 1.00 1.03 0.96 0.85 0.85 0.78 0.68 0.70 0.69 0.73 0.88 1.11 1.24 1.27 1.37 1.51 1.60 1.61 1.69 1.82 2.03 2.22 2.31 2.38 2.54 2.61 2.56 2.51 2.46
0.87 0.93 0.93 0.93 1.11 1.27 0.89 0.85 1.26 1.53 1.28 1.28 1.27 1.19 1.07 1.05 1.00 0.96 0.86 0.84 0.79 0.75 0.81 0.84 0.89 1.04 1.24 1.41 1.38 1.44 1.52 1.57 1.62 1.63 1.74 1.88 2.06 2.09 2.17 2.43 2.52 2.57 2.59 2.53
0.94 1.04 1.13 1.24 1.36 1.24 1.04 1.11 1.28 1.42 1.57 1.48 1.38 1.39 1.20 1.16 1.07 0.97 0.89 0.85 0.82 0.78 0.85 0.91 0.98 1.14 1.37 1.53 1.56 1.63 1.53 1.61 1.66 1.68 1.82 1.97 2.05 2.09 2.20 2.30 2.33 2.40 2.46 2.41
1.10 0.97 1.17 1.41 1.45 1.37 1.22 1.08 1.01 1.15 1.27 1.25 1.25 1.25 1.21 1.18 1.12 1.02 0.91 0.83 0.83 0.83 0.79 0.84 0.95 1.02 1.12 1.32 1.49 1.60 1.67 1.72 1.74 1.76 1.82 1.91 2.03 2.04 2.08 2.20 2.29 2.38 2.47 2.54
1.30 1.15 1.37 1.68 1.59 1.46 1.45 1.32 1.21 1.28 1.34 1.26 1.20 1.17 1.18 1.15 1.10 0.96 0.93 0.91 0.88 0.86 0.82 0.84 0.92 0.94 1.00 1.10 1.22 1.32 1.45 1.58 1.64 1.70 1.76 1.78 1.82 1.92 2.01 2.03 2.09 2.08 2.17 2.21
1.40 1.38 1.67 2.02 1.77 1.61 1.57 1.43 1.31 1.37 1.34 1.42 1.50 1.45 1.24 1.13 1.20 1.12 0.99 0.90 0.88 0.89 0.89 0.90 0.91 0.90 0.93 1.00 1.16 1.27 1.38 1.53 1.65 1.72 1.75 1.68 1.64 1.70 1.76 1.80 1.77 1.77 1.72 1.74

GEFSCGP_prec_meanprecacc_282.txt.gz
Total_Precipitation_Accumulation
0.01 0.02 0.03 0.04 0.05 0.04 0.06 0.08 0.11 0.14 0.13 0.17 0.30 0.56 0.82 0.94 1.23 1.20 1.21 1.39 1.53 1.65 1.96 2.38 2.67 3.22 3.82 4.20 4.60 4.76 4.78 4.70 4.54 4.20 3.91 3.68 3.44 3.22 2.96 2.78 2.69 2.60 2.51 2.71
0.02 0.04 0.03 0.03 0.04 0.06 0.07 0.08 0.11 0.16 0.16 0.22 0.41 0.64 0.93 0.94 1.01 1.06 1.00 1.07 1.25 1.60 1.86 2.37 2.66 2.88 3.34 3.85 4.32 4.62 4.77 4.66 4.29 3.94 3.77 3.67 3.64 3.26 2.95 2.92 3.05 2.87 2.89 2.92
0.02 0.04 0.03 0.04 0.04 0.06 0.09 0.09 0.11 0.12 0.15 0.29 0.45 0.88 1.12 1.01 0.97 0.99 0.99 1.06 1.24 1.69 2.13 2.38 2.56 2.72 3.01 3.41 3.72 3.83 3.99 3.95 3.80 3.84 3.87 3.82 3.84 3.42 3.34 3.34 3.34 3.12 3.13 3.14
0.02 0.03 0.03 0.05 0.07 0.08 0.11 0.09 0.07 0.09 0.17 0.38 0.47 1.04 1.43 1.21 1.09 1.18 1.21 1.18 1.45 1.75 1.78 1.93 2.24 2.55 2.73 2.97 3.30 3.53 3.58 3.53 3.45 3.56 3.62 3.53 3.35 3.21 3.36 3.66 3.59 3.29 3.08 2.94
0.03 0.03 0.04 0.06 0.06 0.07 0.10 0.09 0.09 0.12 0.19 0.36 0.48 0.80 1.34 1.31 1.32 1.27 1.25 1.35 1.59 1.60 1.53 1.64 1.84 2.17 2.28 2.58 2.86 3.10 3.36 3.46 3.41 3.47 3.43 3.46 3.30 3.30 3.37 3.36 3.37 3.15 2.96 2.63
0.04 0.05 0.05 0.04 0.05 0.07 0.08 0.09 0.16 0.23 0.35 0.70 0.58 0.63 1.11 1.26 1.11 1.08 1.16 1.20 1.38 1.37 1.37 1.55 1.71 1.98 2.12 2.24 2.37 2.51 2.71 2.98 3.15 3.21 3.19 3.22 3.16 3.14 3.07 3.00 2.87 2.68 2.53 2.28
0.09 0.10 0.08 0.06 0.06 0.08 0.08 0.14 0.49 0.87 1.06 1.09 0.60 0.65 1.12 1.04 0.93 0.87 1.04 1.11 1.15 1.09 1.07 1.29 1.44 1.59 1.77 1.90 1.99 2.08 2.28 2.60 2.76 2.76 2.75 2.87 2.93 2.92 2.84 2.81 2.65 2.44 2.21 1.95
0.17 0.22 0.13 0.08 0.08 0.10 0.11 0.13 0.42 0.75 0.84 0.89 0.73 1.08 1.51 1.05 0.93 0.90 0.94 0.95 0.92 0.86 0.83 0.99 1.23 1.50 1.65 1.61 1.69 1.79 2.04 2.29 2.40 2.34 2.47 2.70 2.77 2.85 2.74 2.75 2.49 2.24 2.04 1.95
0.11 0.11 0.09 0.08 0.12 0.12 0.11 0.12 0.19 0.36 0.44 0.69 0.94 1.21 1.25 0.80 0.75 0.81 0.83 0.86 0.95 0.89 0.82 0.89 0.98 1.17 1.25 1.27 1.36 1.51 1.89 2.20 2.34 2.38 2.50 2.60 2.68 2.67 2.58 2.44 2.25 2.05 2.06 2.01
0.06 0.07 0.09 0.08 0.10 0.12 0.12 0.14 0.20 0.28 0.46 0.71 0.93 1.22 1.34 0.96 0.78 0.59 0.55 0.60 0.61 0.61 0.62 0.70 0.74 0.86 0.98 1.17 1.42 1.59 1.72 2.03 2.18 2.23 2.33 2.37 2.58 2.51 2.33 2.23 2.04 1.89 1.81 1.85
0.07 0.05 0.07 0.10 0.12 0.14 0.14 0.13 0.16 0.21 0.29 0.49 0.95 1.18 0.93 0.77 0.64 0.60 0.57 0.62 0.55 0.52 0.51 0.57 0.73 0.86 1.01 1.17 1.35 1.42 1.47 1.63 1.79 1.90 2.08 2.07 2.09 2.17 2.23 2.09 1.85 1.77 1.77 1.82
0.07 0.05 0.07 0.14 0.19 0.17 0.15 0.13 0.14 0.20 0.20 0.31 0.55 0.78 0.60 0.66 0.66 0.57 0.59 0.66 0.67 0.66 0.60 0.63 0.82 0.99 1.09 1.23 1.25 1.26 1.30 1.43 1.59 1.77 1.96 2.03 2.04 2.10 2.13 2.01 1.84 1.79 1.82 1.88
0.08 0.07 0.12 0.29 0.41 0.28 0.17 0.13 0.13 0.15 0.14 0.23 0.45 0.71 0.50 0.46 0.57 0.72 0.95 1.14 0.94 0.77 0.70 0.78 0.88 0.93 0.96 1.04 1.16 1.16 1.12 1.26 1.44 1.65 1.99 2.16 2.18 2.14 2.09 1.94 1.73 1.67 1.68 1.78
0.11 0.08 0.12 0.31 0.44 0.37 0.27 0.18 0.14 0.12 0.15 0.20 0.27 0.56 0.52 0.51 0.59 0.78 0.96 0.89 0.86 0.80 0.74 0.85 0.87 0.95 0.93 0.90 0.99 0.98 1.02 1.12 1.36 1.56 1.77 1.88 1.79 1.75 1.80 1.73 1.61 1.54 1.56 1.63
0.15 0.10 0.08 0.13 0.22 0.25 0.25 0.23 0.19 0.15 0.13 0.23 0.27 0.40 0.50 0.54 0.67 0.83 1.01 0.99 0.93 0.76 0.67 0.75 0.76 0.80 0.83 0.85 0.93 0.88 0.90 0.95 1.10 1.29 1.40 1.52 1.54 1.52 1.52 1.58 1.61 1.63 1.72 1.70
0.21 0.20 0.15 0.17 0.20 0.25 0.28 0.27 0.20 0.14 0.12 0.17 0.26 0.41 0.54 0.61 0.70 0.78 0.78 0.72 0.64 0.58 0.48 0.47 0.64 0.74 0.71 0.71 0.75 0.70 0.75 0.89 1.04 1.14 1.25 1.46 1.60 1.63 1.62 1.66 1.75 1.79 1.78 1.79
0.27 0.29 0.28 0.27 0.26 0.26 0.35 0.34 0.25 0.16 0.15 0.21 0.33 0.51 0.68 0.57 0.60 0.68 0.67 0.67 0.61 0.60 0.46 0.42 0.51 0.68 0.68 0.69 0.68 0.76 0.89 1.01 1.12 1.27 1.40 1.58 1.69 1.78 1.79 1.76 1.87 1.83 1.84 1.90
0.42 0.44 0.36 0.34 0.45 0.53 0.38 0.31 0.30 0.29 0.27 0.28 0.40 0.43 0.58 0.58 0.64 0.77 0.76 0.76 0.60 0.54 0.47 0.47 0.48 0.51 0.57 0.63 0.69 0.83 1.11 1.35 1.41 1.55 1.73 1.82 1.91 1.86 1.84 1.86 1.89 1.97 2.05 2.09
0.36 0.55 0.51 0.50 0.64 0.55 0.47 0.33 0.37 0.42 0.55 0.56 0.64 0.62 0.57 0.58 0.70 0.79 0.68 0.62 0.63 0.53 0.49 0.52 0.57 0.59 0.67 0.73 0.76 0.95 1.18 1.48 1.65 1.70 1.80 1.94 2.02 2.05 2.07 2.10 2.07 2.14 2.26 2.22
0.38 0.55 0.68 0.63 0.77 0.76 0.63 0.48 0.48 0.60 1.05 0.87 0.80 0.82 0.72 0.68 0.83 0.92 0.85 0.77 0.72 0.65 0.61 0.62 0.65 0.77 0.94 1.01 1.02 1.15 1.27 1.42 1.61 1.68 1.80 1.97 2.20 2.25 2.28 2.42 2.50 2.44 2.39 2.24
0.68 0.75 0.79 0.78 0.84 0.91 0.76 0.69 0.72 1.14 1.42 1.10 0.94 0.91 0.90 1.02 1.05 0.99 0.87 0.87 0.80 0.70 0.72 0.70 0.73 0.88 1.11 1.24 1.28 1.38 1.51 1.61 1.62 1.70 1.85 2.05 2.23 2.32 2.39 2.55 2.62 2.57 2.52 2.48
0.88 0.94 0.94 0.94 1.12 1.29 0.89 0.85 1.27 1.54 1.28 1.28 1.27 1.20 1.08 1.06 1.03 0.99 0.89 0.86 0.81 0.77 0.82 0.85 0.90 1.04 1.25 1.42 1.39 1.45 1.54 1.58 1.63 1.64 1.75 1.89 2.06 2.09 2.18 2.44 2.53 2.60 2.61 2.55
0.94 1.04 1.14 1.25 1.36 1.25 1.04 1.11 1.29 1.42 1.58 1.49 1.38 1.39 1.20 1.17 1.08 0.98 0.90 0.85 0.82 0.79 0.85 0.92 0.98 1.14 1.38 1.54 1.57 1.64 1.54 1.62 1.67 1.69 1.82 1.97 2.05 2.10 2.20 2.30 2.34 2.42 2.48 2.42
1.10 0.97 1.17 1.41 1.45 1.37 1.23 1.08 1.02 1.15 1.27 1.26 1.25 1.25 1.22 1.19 1.12 1.02 0.91 0.84 0.83 0.83 0.79 0.85 0.96 1.03 1.13 1.33 1.50 1.61 1.67 1.73 1.75 1.76 1.82 1.91 2.03 2.04 2.08 2.21 2.30 2.39 2.48 2.55
1.30 1.15 1.37 1.69 1.59 1.46 1.46 1.33 1.21 1.28 1.36 1.28 1.21 1.17 1.18 1.16 1.10 0.96 0.93 0.91 0.89 0.87 0.83 0.85 0.93 0.96 1.01 1.10 1.23 1.32 1.45 1.58 1.64 1.70 1.76 1.78 1.83 1.92 2.01 2.04 2.11 2.10 2.20 2.24
1.40 1.38 1.68 2.03 1.77 1.62 1.58 1.44 1.31 1.37 1.35 1.42 1.51 1.45 1.24 1.13 1.21 1.12 1.00 0.91 0.89 0.90 0.90 0.91 0.93 0.91 0.94 1.00 1.16 1.27 1.38 1.53 1.65 1.72 1.75 1.68 1.64 1.71 1.76 1.81 1.78 1.79 1.75 1.78

GEFSCGP_prec_meanprecacc_288.txt.gz
Total_Precipitation_Accumulation
0.01 0.02 0.03 0.05 0.06 0.05 0.06 0.09 0.13 0.15 0.14 0.17 0.31 0.57 0.83 0.94 1.24 1.20 1.22 1.42 1.55 1.68 1.99 2.40 2.69 3.24 3.84 4.23 4.62 4.78 4.79 4.72 4.57 4.23 3.93 3.69 3.46 3.24 2.98 2.80 2.70 2.60 2.52 2.72
0.02 0.04 0.03 0.03 0.04 0.06 0.07 0.09 0.12 0.17 0.17 0.23 0.42 0.65 0.94 0.95 1.02 1.07 1.01 1.09 1.28 1.63 1.89 2.40 2.69 2.90 3.36 3.87 4.33 4.63 4.78 4.68 4.31 3.97 3.80 3.70 3.68 3.28 2.98 2.94 3.06 2.88 2.89 2.93
0.02 0.04 0.03 0.04 0.04 0.06 0.10 0.10 0.11 0.13 0.16 0.30 0.46 0.90 1.14 1.02 0.97 1.00 1.00 1.08 1.27 1.71 2.16 2.41 2.59 2.74 3.03 3.43 3.73 3.84 4.01 3.96 3.81 3.87 3.90 3.85 3.88 3.47 3.37 3.37 3.37 3.15 3.14 3.16
0.02 0.03 0.03 0.05 0.07 0.09 0.13 0.09 0.07 0.09 0.18 0.39 0.49 1.08 1.45 1.22 1.10 1.19 1.22 1.20 1.47 1.76 1.79 1.95 2.25 2.57 2.74 2.98 3.30 3.53 3.59 3.54 3.47 3.58 3.66 3.56 3.39 3.24 3.40 3.68 3.62 3.32 3.10 2.96
0.03 0.03 0.04 0.06 0.06 0.07 0.10 0.09 0.09 0.13 0.23 0.40 0.51 0.85 1.37 1.32 1.32 1.27 1.26 1.36 1.61 1.61 1.53 1.64 1.85 2.17 2.29 2.58 2.87 3.11 3.37 3.47 3.43 3.50 3.47 3.50 3.35 3.34 3.40 3.39 3.41 3.20 3.00 2.66
0.04 0.05 0.05 0.04 0.05 0.07 0.08 0.10 0.17 0.24 0.39 0.74 0.59 0.65 1.15 1.29 1.14 1.09 1.17 1.21 1.39 1.38 1.37 1.56 1.72 1.98 2.12 2.25 2.37 2.51 2.71 2.99 3.17 3.24 3.21 3.25 3.21 3.18 3.12 3.05 2.93 2.72 2.57 2.33
0.09 0.10 0.08 0.06 0.06 0.09 0.08 0.16 0.54 0.91 1.09 1.11 0.60 0.65 1.13 1.06 0.96 0.88 1.04 1.11 1.15 1.09 1.07 1.30 1.44 1.59 1.77 1.90 1.99 2.08 2.29 2.61 2.78 2.78 2.77 2.90 2.97 2.96 2.88 2.84 2.69 2.47 2.24 1.98
0.17 0.22 0.13 0.08 0.08 0.10 0.11 0.15 0.46 0.80 0.88 0.90 0.74 1.09 1.52 1.07 0.93 0.90 0.94 0.95 0.92 0.86 0.83 0.99 1.23 1.50 1.65 1.61 1.69 1.80 2.04 2.30 2.42 2.36 2.49 2.73 2.81 2.88 2.77 2.78 2.51 2.26 2.06 1.97
0.12 0.11 0.09 0.08 0.12 0.12 0.12 0.12 0.19 0.36 0.45 0.70 0.96 1.22 1.25 0.81 0.75 0.81 0.83 0.86 0.95 0.89 0.82 0.89 0.98 1.17 1.25 1.27 1.36 1.51 1.89 2.21 2.36 2.40 2.53 2.62 2.71 2.70 2.61 2.49 2.29 2.08 2.09 2.03
0.07 0.07 0.09 0.08 0.10 0.12 0.12 0.14 0.20 0.28 0.47 0.73 0.96 1.24 1.35 0.96 0.78 0.59 0.55 0.60 0.61 0.61 0.63 0.70 0.74 0.86 0.98 1.17 1.42 1.59 1.73 2.04 2.18 2.24 2.35 2.39 2.61 2.53 2.36 2.26 2.08 1.91 1.83 1.86
0.07 0.06 0.08 0.10 0.12 0.14 0.14 0.13 0.16 0.21 0.30 0.51 0.96 1.19 0.94 0.77 0.64 0.60 0.57 0.62 0.56 0.53 0.51 0.57 0.73 0.86 1.01 1.17 1.35 1.43 1.48 1.64 1.80 1.91 2.10 2.09 2.11 2.19 2.25 2.11 1.87 1.79 1.78 1.85
0.07 0.06 0.08 0.14 0.19 0.17 0.15 0.13 0.15 0.20 0.20 0.31 0.56 0.79 0.61 0.66 0.66 0.57 0.59 0.66 0.67 0.66 0.60 0.63 0.82 0.99 1.09 1.23 1.25 1.26 1.31 1.45 1.60 1.78 1.98 2.06 2.06 2.11 2.14 2.02 1.85 1.80 1.83 1.90
0.08 0.07 0.12 0.30 0.41 0.28 0.17 0.13 0.13 0.15 0.14 0.23 0.46 0.71 0.50 0.46 0.57 0.72 0.95 1.14 0.94 0.78 0.70 0.78 0.88 0.93 0.96 1.05 1.16 1.17 1.13 1.28 1.46 1.67 2.00 2.17 2.20 2.15 2.10 1.95 1.75 1.68 1.69 1.79
0.12 0.08 0.12 0.33 0.46 0.38 0.27 0.18 0.14 0.12 0.15 0.20 0.28 0.56 0.52 0.51 0.59 0.79 0.96 0.89 0.86 0.80 0.75 0.85 0.87 0.95 0.93 0.90 0.99 0.98 1.02 1.13 1.37 1.59 1.78 1.88 1.80 1.76 1.80 1.74 1.61 1.55 1.57 1.64
0.16 0.10 0.08 0.13 0.24 0.27 0.25 0.23 0.19 0.15 0.13 0.23 0.28 0.40 0.50 0.54 0.67 0.84 1.02 1.00 0.94 0.77 0.67 0.75 0.76 0.80 0.83 0.85 0.94 0.89 0.90 0.95 1.11 1.31 1.41 1.53 1.54 1.53 1.52 1.59 1.63 1.64 1.73 1.72
0.22 0.21 0.16 0.17 0.21 0.26 0.29 0.27 0.20 0.14 0.12 0.17 0.26 0.41 0.54 0.61 0.71 0.79 0.79 0.73 0.64 0.58 0.48 0.47 0.65 0.75 0.71 0.71 0.75 0.71 0.76 0.90 1.05 1.15 1.26 1.47 1.61 1.63 1.63 1.67 1.77 1.81 1.79 1.80
0.27 0.30 0.29 0.27 0.26 0.27 0.35 0.34 0.25 0.16 0.15 0.21 0.33 0.51 0.68 0.58 0.61 0.68 0.68 0.68 0.62 0.60 0.46 0.42 0.52 0.68 0.69 0.69 0.69 0.77 0.90 1.02 1.13 1.28 1.42 1.60 1.71 1.79 1.80 1.77 1.88 1.84 1.85 1.91
0.42 0.45 0.38 0.35 0.46 0.54 0.39 0.32 0.31 0.30 0.27 0.28 0.41 0.43 0.58 0.59 0.64 0.77 0.76 0.76 0.60 0.55 0.48 0.47 0.48 0.51 0.58 0.64 0.70 0.84 1.12 1.37 1.42 1.56 1.75 1.84 1.93 1.87 1.85 1.86 1.90 1.98 2.07 2.10
0.37 0.56 0.54 0.52 0.64 0.55 0.48 0.34 0.37 0.42 0.56 0.57 0.64 0.62 0.57 0.58 0.70 0.79 0.68 0.62 0.63 0.53 0.49 0.53 0.58 0.60 0.68 0.74 0.76 0.96 1.19 1.49 1.66 1.71 1.81 1.95 2.03 2.07 2.08 2.11 2.08 2.16 2.28 2.24
0.39 0.56 0.70 0.65 0.79 0.77 0.64 0.49 0.49 0.60 1.06 0.88 0.81 0.83 0.72 0.68 0.84 0.93 0.86 0.78 0.72 0.65 0.62 0.63 0.66 0.79 0.96 1.02 1.03 1.15 1.28 1.43 1.61 1.69 1.80 1.98 2.21 2.26 2.28 2.43 2.50 2.45 2.40 2.25
0.70 0.77 0.81 0.80 0.86 0.94 0.79 0.70 0.73 1.15 1.44 1.11 0.94 0.91 0.90 1.03 1.06 1.00 0.89 0.89 0.82 0.71 0.73 0.71 0.74 0.90 1.12 1.25 1.28 1.38 1.52 1.61 1.62 1.71 1.85 2.06 2.24 2.33 2.40 2.56 2.63 2.58 2.53 2.49
0.89 0.96 0.96 0.96 1.15 1.33 0.91 0.87 1.29 1.55 1.29 1.28 1.28 1.20 1.09 1.07 1.04 0.99 0.90 0.88 0.82 0.78 0.83 0.85 0.90 1.05 1.26 1.43 1.40 1.46 1.55 1.59 1.64 1.65 1.77 1.91 2.08 2.11 2.19 2.46 2.55 2.61 2.63 2.56
0.95 1.06 1.15 1.27 1.39 1.27 1.05 1.13 1.30 1.43 1.58 1.49 1.38 1.40 1.21 1.17 1.08 0.99 0.90 0.86 0.83 0.79 0.86 0.92 0.98 1.15 1.39 1.56 1.58 1.66 1.56 1.64 1.69 1.71 1.85 2.00 2.07 2.11 2.22 2.33 2.36 2.44 2.50 2.44
1.13 0.99 1.20 1.44 1.48 1.39 1.24 1.09 1.02 1.16 1.28 1.26 1.25 1.26 1.22 1.19 1.13 1.03 0.92 0.84 0.84 0.84 0.80 0.85 0.97 1.04 1.14 1.34 1.51 1.62 1.68 1.74 1.76 1.78 1.84 1.93 2.06 2.06 2.10 2.23 2.31 2.41 2.50 2.57
1.32 1.16 1.39 1.71 1.62 1.48 1.47 1.34 1.22 1.29 1.36 1.29 1.21 1.18 1.19 1.16 1.10 0.96 0.93 0.92 0.89 0.88 0.83 0.85 0.94 0.97 1.02 1.12 1.24 1.34 1.46 1.59 1.65 1.71 1.78 1.80 1.84 1.95 2.04 2.06 2.13 2.12 2.22 2.25
1.41 1.39 1.69 2.04 1.79 1.64 1.59 1.44 1.32 1.38 1.36 1.43 1.51 1.46 1.24 1.13 1.21 1.12 1.00 0.91 0.89 0.90 0.90 0.92 0.93 0.92 0.95 1.02 1.18 1.29 1.40 1.54 1.66 1.73 1.76 1.70 1.65 1.73 1.79 1.84 1.81 1.81 1.77 1.79

GEFSCGP_prec_meanprecacc_294.txt.gz
Total_Precipitation_Accumulation
0.02 0.03 0.04 0.06 0.07 0.05 0.07 0.11 0.15 0.17 0.15 0.20 0.33 0.59 0.85 0.96 1.26 1.23 1.25 1.43 1.56 1.69 2.01 2.42 2.71 3.26 3.86 4.25 4.63 4.79 4.81 4.74 4.58 4.24 3.95 3.71 3.47 3.25 2.99 2.80 2.71 2.61 2.52 2.73
0.02 0.05 0.04 0.04 0.05 0.07 0.09 0.12 0.15 0.19 0.19 0.26 0.45 0.66 0.95 0.97 1.04 1.10 1.04 1.13 1.30 1.64 1.91 2.43 2.72 2.94 3.39 3.89 4.34 4.64 4.80 4.69 4.32 3.98 3.82 3.72 3.69 3.29 2.99 2.95 3.07 2.89 2.90 2.94
0.03 0.04 0.04 0.04 0.05 0.07 0.11 0.13 0.14 0.15 0.19 0.37 0.49 0.93 1.17 1.05 1.01 1.04 1.05 1.13 1.31 1.73 2.18 2.45 2.63 2.79 3.06 3.45 3.74 3.84 4.02 3.97 3.82 3.88 3.92 3.87 3.90 3.48 3.38 3.38 3.38 3.17 3.16 3.17
0.02 0.03 0.03 0.05 0.07 0.10 0.13 0.11 0.10 0.11 0.21 0.46 0.53 1.12 1.49 1.26 1.16 1.28 1.32 1.27 1.53 1.80 1.82 1.98 2.29 2.60 2.76 2.99 3.31 3.53 3.59 3.55 3.48 3.60 3.67 3.57 3.40 3.26 3.41 3.69 3.63 3.33 3.11 2.98
0.03 0.04 0.05 0.06 0.07 0.08 0.11 0.10 0.11 0.14 0.24 0.44 0.55 0.89 1.41 1.38 1.45 1.46 1.40 1.45 1.70 1.67 1.58 1.68 1.87 2.19 2.31 2.59 2.87 3.11 3.37 3.48 3.43 3.51 3.48 3.51 3.36 3.36 3.42 3.40 3.42 3.21 3.02 2.70
0.04 0.05 0.05 0.05 0.05 0.07 0.08 0.12 0.19 0.26 0.42 0.78 0.61 0.68 1.20 1.37 1.25 1.20 1.25 1.27 1.45 1.42 1.40 1.58 1.73 2.00 2.14 2.26 2.38 2.52 2.72 2.99 3.17 3.24 3.22 3.26 3.21 3.19 3.14 3.06 2.94 2.73 2.58 2.37
0.09 0.10 0.08 0.06 0.07 0.09 0.09 0.18 0.57 0.94 1.13 1.15 0.62 0.68 1.16 1.11 1.00 0.95 1.10 1.17 1.20 1.14 1.10 1.32 1.45 1.60 1.79 1.91 1.99 2.09 2.29 2.61 2.78 2.78 2.77 2.90 2.97 2.97 2.89 2.86 2.70 2.48 2.25 2.00
0.17 0.22 0.13 0.08 0.09 0.10 0.12 0.15 0.48 0.82 0.92 0.95 0.78 1.13 1.54 1.10 0.95 0.94 0.98 1.00 0.98 0.91 0.87 1.02 1.25 1.52 1.66 1.62 1.69 1.80 2.05 2.31 2.43 2.37 2.50 2.74 2.82 2.89 2.79 2.81 2.53 2.26 2.06 1.98
0.12 0.11 0.09 0.08 0.12 0.12 0.12 0.13 0.21 0.38 0.47 0.74 1.00 1.25 1.27 0.82 0.76 0.82 0.86 0.87 0.97 0.93 0.87 0.93 1.01 1.20 1.28 1.29 1.38 1.52 1.90 2.22 2.36 2.41 2.54 2.64 2.73 2.72 2.63 2.51 2.31 2.09 2.10 2.04
0.07 0.08 0.09 0.09 0.10 0.12 0.12 0.14 0.21 0.29 0.49 0.76 1.00 1.27 1.36 0.98 0.79 0.59 0.56 0.61 0.62 0.64 0.68 0.75 0.77 0.88 1.00 1.19 1.43 1.61 1.74 2.04 2.19 2.25 2.36 2.41 2.63 2.55 2.38 2.28 2.10 1.92 1.84 1.89
0.08 0.07 0.09 0.10 0.13 0.14 0.14 0.14 0.16 0.22 0.32 0.55 1.00 1.21 0.95 0.78 0.65 0.60 0.58 0.64 0.58 0.56 0.54 0.60 0.76 0.89 1.03 1.19 1.38 1.47 1.50 1.66 1.81 1.92 2.11 2.11 2.14 2.21 2.28 2.14 1.89 1.80 1.80 1.87
0.07 0.06 0.09 0.15 0.20 0.18 0.15 0.13 0.15 0.21 0.22 0.32 0.57 0.80 0.62 0.67 0.67 0.59 0.63 0.71 0.74 0.70 0.62 0.65 0.85 1.01 1.11 1.24 1.27 1.29 1.34 1.47 1.63 1.80 2.01 2.11 2.10 2.15 2.18 2.05 1.87 1.82 1.84 1.92
0.08 0.08 0.13 0.30 0.42 0.28 0.18 0.14 0.14 0.16 0.15 0.25 0.48 0.73 0.52 0.48 0.59 0.76 1.09 1.26 1.01 0.81 0.73 0.80 0.92 0.98 0.99 1.08 1.19 1.19 1.14 1.29 1.48 1.70 2.04 2.23 2.25 2.20 2.14 1.99 1.76 1.69 1.70 1.80
0.12 0.08 0.13 0.33 0.47 0.39 0.27 0.18 0.14 0.12 0.16 0.21 0.29 0.59 0.55 0.53 0.61 0.83 1.06 0.98 0.91 0.84 0.77 0.88 0.91 1.02 0.98 0.94 1.03 1.01 1.04 1.14 1.39 1.62 1.82 1.92 1.84 1.79 1.83 1.76 1.63 1.55 1.58 1.65
0.17 0.11 0.09 0.14 0.24 0.28 0.26 0.24 0.20 0.16 0.13 0.23 0.28 0.41 0.51 0.56 0.70 0.91 1.07 1.04 0.97 0.79 0.69 0.77 0.78 0.85 0.89 0.97 1.02 0.91 0.92 0.98 1.13 1.34 1.44 1.57 1.57 1.55 1.53 1.60 1.64 1.66 1.74 1.73
0.22 0.21 0.16 0.18 0.21 0.26 0.29 0.27 0.20 0.14 0.13 0.17 0.26 0.42 0.55 0.62 0.74 0.89 0.88 0.77 0.68 0.61 0.50 0.49 0.67 0.76 0.73 0.76 0.84 0.75 0.78 0.92 1.07 1.17 1.28 1.50 1.63 1.65 1.64 1.68 1.79 1.84 1.82 1.82
0.27 0.30 0.29 0.28 0.27 0.28 0.36 0.34 0.26 0.16 0.15 0.21 0.34 0.52 0.69 0.61 0.62 0.72 0.74 0.72 0.65 0.63 0.48 0.43 0.53 0.69 0.69 0.70 0.70 0.79 0.91 1.04 1.15 1.30 1.44 1.61 1.72 1.80 1.81 1.78 1.91 1.87 1.88 1.94
0.43 0.46 0.38 0.36 0.47 0.54 0.39 0.32 0.31 0.30 0.28 0.29 0.41 0.44 0.60 0.62 0.65 0.77 0.78 0.78 0.63 0.56 0.50 0.49 0.49 0.53 0.59 0.65 0.71 0.85 1.14 1.39 1.45 1.58 1.76 1.85 1.94 1.89 1.87 1.88 1.93 2.01 2.09 2.12
0.38 0.57 0.54 0.52 0.65 0.56 0.48 0.34 0.37 0.43 0.57 0.57 0.65 0.64 0.59 0.59 0.71 0.80 0.69 0.63 0.64 0.54 0.50 0.54 0.59 0.62 0.71 0.77 0.79 0.98 1.21 1.51 1.69 1.73 1.82 1.96 2.04 2.08 2.10 2.13 2.11 2.20 2.30 2.25
0.41 0.57 0.71 0.66 0.81 0.78 0.65 0.50 0.49 0.61 1.06 0.89 0.82 0.85 0.73 0.70 0.86 0.95 0.87 0.79 0.73 0.66 0.62 0.64 0.67 0.80 0.99 1.06 1.07 1.20 1.32 1.46 1.64 1.71 1.83 2.00 2.22 2.27 2.29 2.44 2.53 2.49 2.43 2.28
0.73 0.79 0.82 0.82 0.89 0.95 0.80 0.71 0.74 1.16 1.46 1.12 0.96 0.95 0.93 1.04 1.09 1.03 0.90 0.90 0.83 0.72 0.74 0.72 0.75 0.91 1.15 1.28 1.31 1.41 1.56 1.66 1.66 1.74 1.89 2.09 2.27 2.35 2.42 2.58 2.65 2.61 2.55 2.51
0.93 1.00 0.99 0.99 1.18 1.35 0.92 0.87 1.30 1.57 1.31 1.31 1.31 1.25 1.15 1.12 1.06 1.01 0.91 0.89 0.83 0.79 0.84 0.86 0.91 1.06 1.27 1.44 1.42 1.49 1.58 1.63 1.69 1.69 1.81 1.95 2.11 2.14 2.22 2.48 2.57 2.64 2.65 2.58
1.00 1.12 1.21 1.33 1.45 1.32 1.09 1.17 1.34 1.46 1.62 1.52 1.42 1.44 1.24 1.22 1.12 1.01 0.92 0.87 0.84 0.80 0.87 0.93 0.99 1.16 1.40 1.56 1.59 1.68 1.59 1.68 1.73 1.75 1.89 2.04 2.11 2.15 2.26 2.36 2.39 2.46 2.52 2.46
1.19 1.06 1.28 1.55 1.59 1.48 1.32 1.16 1.07 1.21 1.33 1.31 1.30 1.29 1.24 1.21 1.14 1.04 0.93 0.86 0.85 0.85 0.80 0.86 0.97 1.05 1.15 1.34 1.52 1.63 1.71 1.77 1.78 1.80 1.87 1.97 2.09 2.09 2.14 2.26 2.35 2.44 2.54 2.61
1.37 1.21 1.43 1.75 1.67 1.54 1.52 1.38 1.25 1.33 1.41 1.34 1.26 1.23 1.24 1.20 1.13 0.98 0.94 0.92 0.89 0.88 0.83 0.85 0.94 0.97 1.03 1.13 1.26 1.35 1.48 1.62 1.69 1.75 1.81 1.84 1.89 2.00 2.09 2.10 2.18 2.18 2.28 2.29
1.46 1.44 1.72 2.06 1.80 1.66 1.61 1.46 1.33 1.40 1.39 1.46 1.55 1.51 1.28 1.16 1.23 1.14 1.01 0.92 0.90 0.91 0.90 0.92 0.93 0.92 0.96 1.03 1.19 1.32 1.42 1.57 1.70 1.77 1.80 1.74 1.69 1.78 1.84 1.89 1.87 1.88 1.82 1.83

GEFSCGP_prec_meanprecacc_300.txt.gz
Total_Precipitation_Accumulation
0.02 0.03 0.04 0.06 0.08 0.06 0.07 0.11 0.15 0.18 0.16 0.20 0.34 0.60 0.86 0.98 1.28 1.26 1.28 1.45 1.57 1.69 2.01 2.43 2.72 3.27 3.87 4.26 4.66 4.81 4.82 4.75 4.59 4.25 3.96 3.72 3.48 3.26 3.01 2.81 2.72 2.63 2.54 2.76
0.02 0.05 0.04 0.04 0.05 0.07 0.09 0.12 0.15 0.19 0.19 0.27 0.46 0.67 0.97 0.99 1.06 1.12 1.05 1.14 1.31 1.65 1.92 2.44 2.73 2.95 3.40 3.90 4.35 4.67 4.82 4.70 4.34 4.00 3.83 3.73 3.70 3.31 3.01 2.96 3.09 2.92 2.93 2.97
0.03 0.05 0.04 0.05 0.05 0.07 0.11 0.13 0.15 0.15 0.20 0.37 0.50 0.93 1.18 1.06 1.02 1.05 1.05 1.14 1.32 1.74 2.19 2.46 2.65 2.80 3.07 3.46 3.75 3.86 4.03 3.98 3.84 3.89 3.92 3.87 3.91 3.49 3.40 3.39 3.40 3.19 3.18 3.19
0.02 0.03 0.04 0.05 0.07 0.10 0.14 0.11 0.10 0.12 0.22 0.47 0.54 1.13 1.50 1.27 1.17 1.28 1.32 1.28 1.55 1.82 1.83 2.00 2.31 2.62 2.79 3.01 3.32 3.54 3.60 3.56 3.49 3.60 3.68 3.58 3.41 3.27 3.43 3.71 3.64 3.34 3.13 2.99
0.03 0.04 0.05 0.06 0.07 0.08 0.11 0.10 0.11 0.15 0.25 0.44 0.56 0.90 1.42 1.39 1.46 1.46 1.40 1.46 1.71 1.69 1.59 1.69 1.90 2.22 2.33 2.61 2.88 3.12 3.38 3.49 3.44 3.51 3.49 3.52 3.37 3.37 3.43 3.42 3.43 3.22 3.04 2.72
0.04 0.05 0.05 0.05 0.05 0.07 0.08 0.12 0.20 0.27 0.43 0.78 0.61 0.69 1.21 1.38 1.28 1.21 1.26 1.28 1.46 1.43 1.42 1.61 1.78 2.04 2.17 2.28 2.40 2.53 2.73 3.01 3.18 3.24 3.22 3.26 3.22 3.21 3.15 3.08 2.95 2.74 2.60 2.39
0.09 0.10 0.08 0.06 0.07 0.09 0.09 0.19 0.57 0.95 1.14 1.15 0.62 0.68 1.17 1.13 1.03 1.01 1.14 1.20 1.22 1.15 1.12 1.34 1.49 1.65 1.83 1.95 2.02 2.11 2.31 2.63 2.79 2.79 2.78 2.90 2.98 2.99 2.92 2.89 2.72 2.49 2.27 2.02
0.17 0.22 0.13 0.08 0.09 0.10 0.12 0.16 0.48 0.83 0.92 0.95 0.78 1.13 1.55 1.12 0.98 1.00 1.05 1.05 1.00 0.93 0.88 1.03 1.29 1.56 1.72 1.68 1.73 1.82 2.07 2.33 2.44 2.38 2.51 2.74 2.83 2.91 2.82 2.85 2.55 2.27 2.08 2.01
0.12 0.12 0.09 0.08 0.12 0.12 0.12 0.14 0.21 0.39 0.47 0.74 1.00 1.25 1.27 0.83 0.77 0.84 0.90 0.91 1.00 0.95 0.89 0.96 1.04 1.24 1.33 1.34 1.42 1.56 1.93 2.24 2.37 2.42 2.55 2.65 2.75 2.74 2.67 2.55 2.33 2.11 2.13 2.08
0.07 0.08 0.09 0.09 0.10 0.12 0.12 0.15 0.21 0.30 0.50 0.76 1.00 1.27 1.36 0.99 0.80 0.60 0.56 0.62 0.63 0.66 0.71 0.77 0.80 0.91 1.03 1.23 1.48 1.65 1.79 2.08 2.21 2.26 2.38 2.43 2.66 2.57 2.41 2.31 2.12 1.95 1.88 1.94
0.08 0.07 0.09 0.10 0.13 0.14 0.14 0.14 0.17 0.23 0.32 0.55 1.00 1.21 0.95 0.78 0.65 0.61 0.58 0.65 0.60 0.60 0.58 0.62 0.77 0.90 1.05 1.21 1.41 1.50 1.53 1.69 1.83 1.94 2.13 2.13 2.16 2.23 2.30 2.16 1.91 1.83 1.83 1.90
0.07 0.06 0.09 0.15 0.20 0.18 0.15 0.13 0.16 0.22 0.22 0.32 0.57 0.80 0.62 0.67 0.67 0.59 0.64 0.73 0.79 0.76 0.66 0.68 0.86 1.02 1.12 1.25 1.29 1.30 1.35 1.50 1.65 1.83 2.03 2.12 2.12 2.17 2.19 2.06 1.88 1.83 1.87 1.94
0.08 0.08 0.13 0.30 0.42 0.28 0.18 0.14 0.14 0.16 0.15 0.25 0.48 0.74 0.52 0.48 0.59 0.76 1.12 1.32 1.07 0.86 0.77 0.83 0.93 0.99 0.99 1.08 1.19 1.19 1.16 1.31 1.51 1.73 2.06 2.25 2.28 2.22 2.15 2.00 1.77 1.71 1.71 1.81
0.12 0.09 0.13 0.33 0.47 0.39 0.27 0.18 0.14 0.12 0.16 0.21 0.29 0.59 0.55 0.53 0.61 0.84 1.06 0.99 0.93 0.85 0.79 0.90 0.92 1.03 0.99 0.95 1.04 1.03 1.06 1.16 1.41 1.64 1.84 1.94 1.86 1.80 1.84 1.77 1.64 1.57 1.59 1.66
0.17 0.11 0.09 0.14 0.24 0.28 0.26 0.24 0.20 0.16 0.13 0.23 0.28 0.41 0.51 0.56 0.70 0.91 1.07 1.05 0.98 0.80 0.71 0.79 0.79 0.86 0.91 0.99 1.04 0.93 0.94 1.00 1.15 1.36 1.46 1.59 1.59 1.56 1.55 1.62 1.66 1.67 1.76 1.74
0.22 0.21 0.16 0.18 0.21 0.26 0.29 0.27 0.20 0.14 0.13 0.17 0.26 0.42 0.55 0.62 0.74 0.89 0.89 0.78 0.69 0.62 0.51 0.50 0.68 0.77 0.74 0.77 0.85 0.76 0.80 0.94 1.10 1.20 1.31 1.52 1.65 1.67 1.66 1.70 1.81 1.85 1.83 1.82
0.28 0.31 0.30 0.28 0.27 0.28 0.36 0.34 0.26 0.16 0.15 0.21 0.34 0.52 0.70 0.61 0.63 0.72 0.75 0.73 0.66 0.63 0.49 0.44 0.53 0.69 0.70 0.71 0.71 0.81 0.94 1.07 1.19 1.33 1.47 1.64 1.74 1.82 1.83 1.80 1.93 1.88 1.88 1.94
0.43 0.46 0.39 0.36 0.47 0.54 0.39 0.32 0.31 0.30 0.28 0.29 0.42 0.45 0.60 0.62 0.66 0.78 0.78 0.78 0.64 0.57 0.50 0.49 0.50 0.53 0.59 0.66 0.72 0.88 1.18 1.43 1.48 1.62 1.81 1.90 1.99 1.92 1.90 1.91 1.95 2.03 2.10 2.13
0.38 0.57 0.55 0.53 0.66 0.56 0.48 0.34 0.38 0.43 0.57 0.58 0.66 0.65 0.61 0.60 0.72 0.81 0.70 0.63 0.65 0.55 0.51 0.54 0.59 0.63 0.71 0.77 0.81 1.00 1.24 1.55 1.73 1.79 1.88 2.02 2.11 2.14 2.14 2.16 2.13 2.21 2.32 2.27
0.41 0.58 0.72 0.67 0.81 0.79 0.65 0.50 0.49 0.61 1.07 0.89 0.83 0.85 0.75 0.71 0.88 0.97 0.89 0.80 0.74 0.67 0.63 0.64 0.67 0.81 0.99 1.07 1.09 1.22 1.35 1.50 1.69 1.76 1.87 2.04 2.27 2.31 2.33 2.47 2.55 2.50 2.45 2.30
0.73 0.80 0.83 0.82 0.89 0.96 0.80 0.71 0.74 1.16 1.46 1.13 0.97 0.95 0.94 1.06 1.11 1.06 0.93 0.91 0.84 0.73 0.75 0.73 0.75 0.91 1.15 1.29 1.33 1.42 1.58 1.68 1.70 1.78 1.93 2.12 2.29 2.37 2.44 2.61 2.67 2.63 2.57 2.52
0.94 1.00 0.99 0.99 1.18 1.35 0.93 0.88 1.30 1.57 1.32 1.32 1.31 1.26 1.16 1.14 1.09 1.04 0.94 0.91 0.84 0.80 0.85 0.87 0.93 1.08 1.29 1.46 1.43 1.50 1.60 1.65 1.70 1.71 1.85 2.00 2.15 2.17 2.25 2.51 2.60 2.66 2.67 2.59
1.02 1.13 1.21 1.33 1.45 1.32 1.10 1.17 1.34 1.47 1.62 1.53 1.43 1.44 1.26 1.24 1.14 1.04 0.96 0.91 0.87 0.83 0.89 0.95 1.02 1.19 1.42 1.59 1.61 1.69 1.60 1.69 1.74 1.77 1.91 2.07 2.16 2.20 2.31 2.41 2.44 2.51 2.55 2.48
1.25 1.11 1.31 1.56 1.60 1.48 1.33 1.17 1.08 1.21 1.34 1.32 1.31 1.30 1.25 1.22 1.15 1.06 0.97 0.90 0.89 0.88 0.83 0.88 1.00 1.07 1.17 1.36 1.54 1.65 1.72 1.78 1.79 1.83 1.90 2.00 2.12 2.14 2.21 2.32 2.41 2.51 2.58 2.64
1.46 1.30 1.51 1.80 1.70 1.56 1.54 1.39 1.26 1.34 1.42 1.34 1.27 1.24 1.25 1.22 1.15 1.01 0.97 0.95 0.92 0.91 0.85 0.86 0.95 0.99 1.05 1.14 1.27 1.36 1.49 1.63 1.70 1.76 1.83 1.86 1.91 2.03 2.14 2.18 2.27 2.25 2.33 2.34
1.51 1.52 1.79 2.11 1.83 1.68 1.63 1.48 1.35 1.41 1.39 1.47 1.57 1.52 1.30 1.20 1.28 1.19 1.06 0.96 0.94 0.95 0.93 0.94 0.94 0.93 0.97 1.04 1.20 1.32 1.43 1.59 1.72 1.79 1.82 1.76 1.72 1.80 1.88 1.95 1.95 1.96 1.90 1.90